Flag for Congo Dem.Rep. Weather past 2 weeks in Kinshasa, Congo Dem.Rep.

Now
88 °F

Passing clouds.


Feels Like: 88 °F
Forecast: 71 / 89 °F
Wind: 7 mph from Southwest

Location: Brazzaville / Maya-Maya

Current Time: Aug 1, 2015 at 6:15:47 PM

Latest Report: Aug 1, 2015 at 5:00 PM


Visibility: N/A

Pressure: 29.86 "Hg

Humidity: 40%

Dew point: 61 °F

Location of KinshasaLocation

Historic Weather in Kinshasa — Graph

°F

Kinshasa temperature yesterday

Maximum temperature yesterday: 84 °F (at 2:00 PM)
Minimum temperature yesterday: 66 °F (at 5:00 AM)
Average temperature yesterday: 74 °F

Past Weeks' High & Low Weather Summary

 TemperatureHumidityPressure
High88 °F (Aug 1, 3:00 PM)94% (Jul 22, 6:53 AM)30.09 "Hg (Jul 22, 6:53 AM)
Low64 °F (Aug 1, 6:00 AM)40% (Aug 1, 3:00 PM)29.86 "Hg (Jul 23, 4:00 PM)
Average74 °F73%29.99 "Hg
* Reported Jul 17 5:00 PM — Aug 1 5:00 PM, Kinshasa, Weather by CustomWeather, © 2015

Note: Actual official high and low records may vary slightly from our data, if they occured in-between our weather recording intervals... More about our weather records

Advertising

Kinshasa weather history for previous 24 hours

 ConditionsComfort  
Time TempWeatherWind HumidityBarometerVisibility
5:00 PM
Sat, Aug 1
88 °FPassing clouds.7 mph40%29.86 "HgN/A
4:00 PM88 °FPassing clouds.6 mph43%29.86 "HgN/A
3:00 PM88 °FPassing clouds.6 mph40%29.89 "HgN/A
2:00 PM86 °FPassing clouds.8 mph46%29.92 "HgN/A
1:00 PM84 °FPassing clouds.7 mph48%29.95 "HgN/A
12:00 PM81 °FPassing clouds.5 mph54%30.01 "HgN/A
11:00 AM77 °FPassing clouds.8 mph61%30.04 "HgN/A
10:00 AM73 °FClear.6 mph65%30.07 "Hg5 mi
9:00 AM72 °FClear.5 mph69%30.07 "Hg5 mi
8:00 AM68 °FFog.3 mph78%30.04 "Hg2 mi
7:00 AM64 °FClear.2 mph94%30.01 "Hg4 mi
6:00 AM64 °FClear.No wind88%29.98 "Hg4 mi
5:00 AM66 °FClear.No wind83%29.98 "Hg5 mi
4:00 AM66 °FClear.2 mph83%29.95 "Hg5 mi
3:00 AM68 °FClear.2 mph78%29.98 "Hg5 mi
2:00 AM68 °FClear.2 mph78%29.98 "Hg5 mi
1:00 AM70 °FClear.2 mph73%30.01 "Hg5 mi
12:00 AM72 °FClear.3 mph69%30.01 "Hg5 mi
11:00 PM
Fri, Jul 31
72 °FClear.5 mph73%30.01 "Hg5 mi
10:00 PM73 °FClear.6 mph69%30.01 "Hg5 mi
9:00 PM75 °FClear.6 mph65%29.98 "Hg4 mi
8:00 PM75 °FClear.9 mph65%29.95 "Hg4 mi
7:00 PM77 °FClear.7 mph61%29.95 "Hg5 mi
6:00 PM79 °FClear.9 mph58%29.92 "Hg5 mi
Weather by CustomWeather, © 2015

See weather overviewHow to use our weather pages